Hourly Weather Roundup
Issued by NWS

Home | Current Version | Previous Version | Text Only | Print | Product List | Glossary On
Versions: 1 2 3 4 5 6 7 8 9 10 11 12 13 14 15 16 17 18 19 20 21 22 23 24 25 26 27 28 29 30 31 32 33 34 35 36 37 38 39 40 41 42 43 44 45 46 47 48 49 50
005
NZUS43 KILX 190410
HWRCRS

NWR Hourly Weather Roundup
National Weather Service Lincoln IL
1100 PM CDT WED OCT 18 2017


CITY           SKY/WX    TMP DP  RH WIND       PRES   REMARKS
Champaign      CLEAR     53  45  74 S8        30.13R
Lawrenceville  CLEAR     52  46  80 S5        30.17S
Peoria         CLEAR     56  46  69 S6        30.09R
Springfield    CLEAR     58  48  69 S7        30.10R
$$


CITY           SKY/WX    TMP DP  RH WIND       PRES   REMARKS
Bloomington    CLEAR     56  47  71 SW13      30.11R
Danville       CLEAR     53  44  73 S7        30.11R
Decatur        CLEAR     58  47  66 S10       30.12R
Effingham      CLEAR     58  47  67 SE6       30.16S
Flora          CLEAR     54  47  78 S6        30.16S
Galesburg      CLEAR     53  45  74 S5        30.08S
Jacksonville   CLEAR     59  47  65 S6        30.09R
Lacon          CLEAR     58  47  69 SW3       30.07S
La Salle       CLEAR     54  43  66 S5        30.08F
Lincoln        CLEAR     56  48  75 S3        30.10S
Litchfield     CLEAR     55  47  75 S9        30.11S

CITY           SKY/WX    TMP DP  RH WIND       PRES   REMARKS
Macomb         CLEAR     52  44  75 CALM      30.10S
Mattoon        CLEAR     57  48  72 S9        30.12S
Moline         CLEAR     56  42  59 CALM      30.04S
Olney          CLEAR     55  49  79 S6        30.16S
Paris          CLEAR     53  47  79 S7        30.14F
Pontiac        CLEAR     56  48  73 S8        30.10S
Quincy         CLEAR     58  43  57 S5        30.08R
Rantoul        CLEAR     52  47  84 S6        30.12R
Robinson       CLEAR     50  45  83 S7        30.17S
Taylorville    CLEAR     56  47  71 S6        30.12R
Terre Haute    CLEAR     56  45  66 S8        30.16R
$$


CITY           SKY/WX    TMP DP  RH WIND       PRES   REMARKS
Burlington     CLEAR     55  46  71 S5        30.06S
Chicago        PTCLDY    63  43  48 SW14      30.05R
Des Moines     CLOUDY    57  49  74 S3        30.03S
Evansville     CLEAR     56  46  69 SW3       30.20S
Indianapolis   CLEAR     55  45  68 S8        30.17R
Kansas City    CLEAR     55  50  83 S9        30.04S
Milwaukee      PTCLDY    62  44  51 SW16      29.99F
St Louis       CLEAR     62  48  60 VRB6      30.11R
$$





USA.gov is the U.S. government's official web portal to all federal, state and local government web resources and services.